Wind_Speed
12 14 14 15 16 17 18 18 19 20 20 20 20 20 19 19 19 19 18 17 16 16 16 17 17 17 18 18 18 17 18 17 18 19 20 20 21 20 21 21 21 21 22 23
13 14 16 16 17 16 16 16 17 18 18 18 18 18 18 18 18 17 16 16 17 16 17 18 17 18 19 18 18 18 18 19 20 20 21 21 21 21 22 22 23 24 24 24
13 14 15 15 16 16 15 15 15 15 16 17 17 17 16 16 16 16 15 15 16 17 16 17 17 18 19 19 19 19 19 20 20 20 20 22 23 23 24 24 24 25 26 26
12 13 13 13 14 15 15 14 14 14 15 15 16 16 15 15 16 16 16 16 17 17 18 18 18 18 19 19 19 20 19 19 20 21 22 23 24 25 26 26 26 27 27 27
11 11 12 13 14 14 15 14 14 14 14 14 15 15 15 15 15 15 16 17 17 17 19 19 19 19 20 21 21 20 20 20 21 23 24 25 25 26 26 27 27 27 27 27
11 11 12 13 14 14 14 15 15 14 14 15 14 15 15 15 15 16 17 18 18 18 19 20 20 21 21 22 23 23 22 22 23 24 25 26 27 27 28 28 28 28 28 27
9 10 11 12 13 14 15 16 16 15 15 15 15 15 15 15 15 16 17 17 17 19 20 20 20 21 22 22 22 23 23 23 24 25 26 27 28 29 30 29 30 29 29 29
8 9 9 10 11 12 14 15 15 16 16 15 15 15 15 15 14 15 16 17 16 18 20 21 21 22 23 23 23 23 23 24 25 25 26 28 29 30 31 31 30 30 30 30
9 10 10 10 10 11 11 12 13 14 15 15 15 15 14 14 14 15 16 16 17 17 19 20 22 23 23 23 23 23 24 24 25 26 27 28 28 28 28 29 30 30 29 29
8 10 10 10 11 11 11 12 12 13 13 14 14 14 13 13 14 15 15 16 17 18 18 20 22 22 22 22 23 23 23 24 25 26 26 26 26 26 26 25 26 26 27 28
9 9 10 11 11 11 11 12 13 14 14 14 13 13 13 14 14 15 16 16 17 17 18 19 20 21 22 22 21 21 22 23 23 23 24 24 24 24 23 23 23 23 23 24
9 9 10 11 11 11 12 12 12 13 14 13 14 13 13 14 14 15 15 16 17 18 19 19 20 21 21 20 20 21 21 22 22 22 22 22 22 22 21 21 21 21 21 22
9 9 10 11 11 12 12 12 12 12 12 12 13 13 13 14 14 15 16 16 17 18 19 19 20 20 19 19 20 20 21 22 22 22 22 21 21 21 20 20 20 20 21 21
8 8 9 10 10 10 10 11 11 11 12 12 12 13 14 14 14 15 15 16 17 17 18 18 17 18 18 18 19 19 20 21 21 22 21 21 20 20 19 18 18 18 19 19
8 8 8 9 9 10 10 10 11 11 11 12 12 13 14 14 14 14 15 16 16 16 16 17 18 17 17 17 18 19 19 20 20 20 20 19 18 17 17 17 17 17 17 17
7 7 8 8 9 10 11 11 11 11 11 11 12 13 14 15 15 14 15 15 15 15 16 17 17 17 17 16 17 17 18 18 18 18 17 17 16 15 15 15 15 15 15 16
6 7 8 9 9 9 10 10 11 11 12 12 12 13 14 14 14 13 14 15 15 16 16 17 17 16 16 16 16 17 16 17 17 16 15 14 14 13 13 13 14 14 14 14
5 6 6 7 8 8 9 9 10 11 12 12 13 13 14 14 14 14 14 15 15 16 16 16 16 16 15 15 15 15 15 16 16 15 15 14 13 13 13 13 13 13 12 12
5 6 6 7 8 8 8 9 10 11 11 11 12 13 14 14 15 15 15 16 16 16 15 15 15 14 14 13 13 14 14 15 14 13 13 12 12 12 12 11 11 11 11 11
5 6 7 7 8 8 8 8 9 10 10 11 12 13 14 14 15 15 15 15 15 15 14 13 13 12 12 12 13 13 13 12 11 10 11 11 11 10 10 9 9 9 9 9
4 5 6 6 7 7 8 8 9 10 10 11 12 13 13 14 14 14 14 14 15 15 13 13 12 12 11 11 11 11 11 9 9 10 10 9 9 9 8 8 7 7 7 7
4 5 5 6 7 8 9 9 9 10 10 11 12 13 13 13 13 13 13 14 14 14 12 11 11 10 9 9 8 8 8 8 9 9 8 8 8 7 7 7 7 7 7 7
5 5 6 7 8 8 9 9 9 10 11 11 12 13 13 13 13 13 13 13 13 12 10 9 8 8 7 6 6 6 7 7 7 7 7 7 7 7 7 7 7 7 7 8
6 6 6 6 7 8 8 9 9 10 11 11 12 12 13 13 13 12 12 11 11 9 8 7 7 6 5 6 6 6 7 7 6 6 6 6 6 6 7 7 7 8 8 8
6 6 6 6 7 7 8 8 9 10 11 11 11 12 12 12 12 12 11 10 9 9 8 7 7 6 6 6 6 6 6 6 6 6 6 7 7 7 8 8 8 8 9 10
6 6 6 6 6 6 7 8 9 10 10 10 10 11 12 11 11 10 9 9 9 8 8 7 7 6 5 5 6 6 6 6 7 6 7 7 8 8 9 9 10 10 10 11
Wind_Direction
210 208 207 212 216 221 225 227 230 234 239 242 245 248 250 254 259 261 263 268 273 278 278 281 283 285 288 290 291 284 286 282 275 275 275 275 276 276 276 276 275 274 274 274
205 205 210 212 216 219 224 227 230 235 240 241 244 248 252 254 259 263 266 266 271 280 283 282 284 287 289 289 290 288 283 282 278 277 276 277 276 277 277 275 273 273 273 273
206 211 214 217 219 221 224 225 230 235 242 244 248 252 257 259 261 267 269 271 275 278 284 284 285 290 288 288 288 287 285 282 278 277 276 277 279 279 277 276 274 274 273 273
211 217 219 221 222 224 222 222 225 233 241 247 253 257 261 263 266 268 271 274 278 279 281 284 286 291 289 287 287 285 284 282 279 278 279 279 280 278 278 277 276 276 275 273
213 217 220 221 223 226 225 227 229 237 247 255 256 259 264 270 274 276 276 275 277 279 281 284 285 287 286 284 285 283 282 283 282 281 280 281 281 281 278 277 277 277 275 274
221 225 227 226 230 234 236 239 241 248 256 261 266 267 270 271 274 277 280 276 276 278 283 285 286 284 284 286 287 285 283 282 284 284 283 283 282 281 280 278 277 276 275 274
221 227 231 234 236 239 243 247 250 255 258 265 270 274 275 275 275 279 284 280 277 279 283 285 286 286 287 288 288 288 283 284 285 285 285 284 283 282 280 278 276 274 275 275
221 230 237 238 238 243 246 250 256 260 264 267 267 273 277 278 278 279 282 283 280 279 282 284 285 287 288 289 289 289 285 286 288 288 286 286 285 283 283 280 277 276 275 275
231 238 243 243 246 250 249 252 259 265 268 267 269 272 274 277 280 279 279 282 283 284 285 287 289 289 290 291 291 288 288 290 291 290 289 288 287 285 284 281 277 276 276 275
241 245 250 254 257 257 260 261 263 266 270 273 273 274 277 281 281 282 282 283 285 287 289 291 292 292 293 292 290 290 292 293 294 294 293 292 291 289 286 283 280 278 277 277
249 253 256 259 260 265 266 268 271 272 274 278 280 280 282 283 289 290 288 286 287 287 290 293 294 295 296 296 295 295 297 298 298 297 296 296 295 292 290 287 285 283 282 280
257 261 260 260 264 267 268 270 272 275 276 277 281 284 286 288 289 292 292 290 289 289 291 291 294 296 297 297 297 298 300 300 300 299 297 298 297 294 292 291 290 288 286 285
260 263 266 266 266 270 271 272 275 276 274 278 282 286 288 291 292 292 294 295 294 291 292 293 294 297 297 295 296 299 301 301 301 301 300 300 299 297 295 293 292 292 290 289
266 267 269 272 275 276 274 275 278 279 279 281 282 287 293 295 296 297 296 295 293 292 297 299 298 299 298 296 297 299 301 301 301 302 301 301 301 300 298 297 297 296 294 293
269 270 272 277 281 282 282 280 280 281 282 283 287 289 292 296 299 298 298 296 295 295 299 300 299 298 296 296 299 301 303 304 304 304 303 302 302 302 303 302 302 300 299 299
282 280 281 284 286 286 283 283 285 286 285 285 287 289 293 297 299 301 300 299 299 298 301 302 299 298 297 298 300 303 304 306 307 307 307 306 305 305 308 308 306 305 304 305
290 286 289 293 295 296 288 287 287 287 287 290 288 289 292 296 300 304 305 304 303 305 303 302 300 298 300 301 300 302 306 310 311 312 314 313 311 309 311 313 312 311 309 309
296 295 293 297 300 302 302 295 294 295 296 294 295 293 296 300 301 303 305 306 307 307 304 303 302 301 300 301 302 304 306 311 314 315 318 317 315 314 314 316 316 314 315 316
301 297 296 301 305 310 309 303 303 304 302 299 298 298 298 300 302 304 306 306 308 307 307 307 304 302 300 302 304 305 308 314 316 318 321 323 322 321 320 320 320 321 322 320
302 303 301 303 307 312 315 310 310 308 307 307 307 306 305 305 306 307 307 306 308 309 309 306 303 304 304 307 309 310 314 317 318 324 329 332 332 331 332 332 331 332 333 334
302 304 304 309 313 319 320 320 316 316 317 318 316 315 313 313 314 312 311 311 314 315 313 311 311 311 311 312 313 314 319 323 328 334 336 338 340 342 344 345 350 353 356 1
301 304 312 318 319 322 321 321 322 321 321 322 322 321 320 320 321 319 319 319 320 320 319 318 317 317 318 320 322 325 327 331 338 342 346 351 353 355 359 6 13 17 20 23
306 308 312 317 318 322 323 323 322 325 325 325 326 327 328 327 327 326 325 326 329 328 330 330 324 324 328 332 335 337 342 344 347 355 1 5 9 15 21 28 30 32 36 41
299 308 311 314 318 322 323 325 325 330 331 331 333 334 334 332 330 330 331 333 337 343 346 348 347 345 350 352 349 347 350 355 2 10 14 16 22 30 36 42 45 50 54 54
303 306 309 314 317 322 326 327 329 331 334 334 336 339 339 337 338 338 340 345 350 353 354 353 354 358 0 2 3 3 7 16 23 27 31 34 40 47 52 54 59 65 67 68
310 312 310 311 314 320 326 329 332 334 337 339 343 345 345 344 345 348 350 354 359 5 8 12 13 17 19 22 24 28 36 41 40 43 51 55 58 61 62 69 75 77 76 75
Height
5820 5823 5824 5826 5828 5831 5832 5834 5836 5838 5839 5840 5842 5843 5843 5844 5845 5846 5846 5847 5846 5846 5846 5845 5844 5844 5842 5842 5842 5842 5841 5840 5840 5839 5839 5839 5839 5839 5839 5838 5838 5837 5836 5836
5820 5822 5823 5825 5827 5829 5831 5833 5834 5836 5837 5838 5839 5840 5840 5841 5842 5843 5843 5843 5842 5842 5842 5841 5841 5840 5839 5838 5838 5837 5836 5835 5835 5834 5833 5833 5833 5833 5833 5832 5831 5831 5830 5829
5819 5821 5822 5824 5825 5827 5829 5831 5833 5834 5834 5835 5837 5838 5838 5838 5838 5839 5839 5839 5839 5839 5838 5838 5838 5837 5836 5835 5834 5832 5831 5830 5829 5829 5828 5828 5827 5827 5827 5826 5825 5824 5823 5822
5818 5820 5821 5823 5825 5826 5828 5829 5831 5831 5832 5833 5834 5835 5835 5835 5836 5836 5836 5836 5835 5835 5835 5834 5834 5833 5832 5831 5830 5828 5827 5826 5825 5824 5823 5822 5821 5821 5820 5819 5818 5816 5815 5815
5817 5819 5821 5822 5824 5825 5826 5827 5829 5829 5830 5831 5831 5832 5833 5832 5832 5833 5833 5832 5832 5831 5831 5830 5829 5829 5828 5827 5825 5824 5822 5821 5820 5818 5817 5816 5815 5814 5813 5812 5810 5809 5808 5807
5817 5818 5820 5821 5822 5824 5825 5826 5827 5827 5828 5828 5828 5829 5830 5829 5830 5829 5829 5828 5828 5828 5827 5826 5825 5824 5823 5822 5820 5819 5817 5816 5814 5813 5811 5809 5808 5807 5805 5804 5802 5801 5800 5799
5817 5818 5819 5820 5821 5822 5823 5824 5825 5825 5825 5826 5826 5826 5827 5826 5826 5825 5825 5824 5824 5823 5822 5821 5820 5819 5817 5816 5814 5812 5811 5810 5808 5806 5804 5803 5801 5799 5797 5796 5794 5793 5792 5791
5815 5817 5817 5818 5819 5820 5820 5822 5823 5823 5823 5823 5823 5822 5824 5823 5822 5822 5821 5820 5819 5819 5818 5817 5816 5814 5812 5810 5809 5807 5805 5803 5801 5799 5797 5795 5793 5791 5788 5786 5785 5784 5783 5783
5814 5815 5816 5816 5817 5818 5818 5819 5820 5821 5820 5820 5820 5820 5820 5819 5819 5818 5817 5816 5816 5815 5813 5812 5811 5809 5807 5805 5803 5801 5799 5796 5794 5792 5790 5787 5784 5782 5780 5777 5776 5775 5774 5774
5813 5813 5814 5815 5815 5816 5816 5816 5817 5817 5817 5817 5817 5816 5817 5816 5815 5815 5814 5813 5812 5810 5809 5807 5805 5803 5801 5799 5797 5795 5792 5790 5787 5785 5782 5779 5777 5775 5772 5770 5769 5767 5766 5765
5811 5811 5812 5812 5812 5813 5813 5814 5814 5814 5814 5814 5813 5816 5813 5813 5812 5811 5809 5808 5807 5806 5804 5802 5800 5797 5795 5793 5790 5788 5786 5783 5780 5778 5775 5773 5770 5767 5766 5764 5762 5760 5759 5758
5808 5809 5809 5810 5810 5810 5810 5810 5811 5811 5811 5810 5810 5813 5810 5809 5808 5807 5805 5804 5802 5800 5799 5797 5795 5792 5790 5787 5785 5782 5780 5777 5775 5772 5769 5767 5764 5762 5760 5758 5756 5754 5753 5751
5807 5807 5807 5807 5809 5808 5807 5807 5807 5807 5807 5807 5807 5810 5806 5805 5804 5802 5801 5799 5797 5796 5794 5792 5790 5787 5785 5782 5780 5778 5775 5772 5770 5767 5764 5761 5759 5756 5754 5752 5750 5748 5747 5745
5805 5805 5806 5806 5805 5805 5805 5805 5804 5804 5804 5803 5803 5803 5802 5801 5799 5798 5797 5795 5793 5791 5789 5787 5785 5783 5780 5778 5775 5773 5771 5768 5765 5762 5759 5756 5753 5751 5749 5747 5745 5743 5741 5739
5803 5803 5802 5803 5803 5802 5802 5802 5801 5801 5800 5800 5800 5799 5798 5797 5796 5794 5793 5791 5789 5787 5784 5782 5780 5778 5775 5773 5771 5768 5766 5763 5760 5757 5754 5751 5748 5746 5744 5742 5740 5738 5736 5734
5801 5801 5801 5801 5801 5800 5800 5799 5799 5798 5797 5796 5796 5795 5794 5793 5792 5790 5789 5787 5785 5782 5780 5777 5775 5773 5771 5769 5766 5764 5761 5758 5755 5753 5749 5747 5744 5742 5740 5738 5736 5734 5732 5730
5799 5799 5799 5799 5798 5798 5797 5797 5796 5795 5794 5794 5792 5792 5791 5789 5788 5786 5784 5782 5780 5778 5775 5773 5770 5768 5766 5764 5762 5760 5757 5754 5752 5749 5746 5743 5741 5739 5737 5735 5733 5731 5729 5727
5798 5798 5798 5797 5798 5796 5797 5794 5793 5792 5791 5790 5789 5788 5787 5785 5784 5782 5780 5778 5776 5773 5771 5768 5766 5764 5762 5759 5757 5755 5753 5751 5748 5745 5743 5740 5738 5736 5734 5732 5730 5728 5726 5724
5797 5797 5796 5796 5795 5794 5794 5792 5790 5789 5788 5787 5786 5784 5783 5782 5780 5778 5776 5774 5771 5769 5766 5764 5761 5759 5757 5755 5753 5751 5749 5747 5745 5742 5740 5738 5736 5734 5732 5730 5728 5726 5724 5722
5796 5795 5795 5794 5793 5793 5793 5790 5788 5788 5786 5785 5783 5781 5780 5778 5777 5775 5772 5770 5767 5764 5762 5760 5757 5755 5753 5752 5750 5748 5746 5744 5742 5739 5738 5735 5733 5732 5730 5728 5726 5725 5723 5721
5795 5794 5794 5793 5792 5791 5790 5788 5788 5787 5786 5783 5780 5779 5777 5775 5774 5771 5768 5766 5763 5761 5758 5756 5754 5752 5750 5749 5747 5745 5744 5742 5740 5738 5736 5734 5732 5730 5729 5727 5726 5724 5723 5721
5794 5793 5793 5792 5791 5792 5789 5787 5786 5785 5782 5780 5778 5777 5775 5772 5770 5767 5765 5762 5760 5757 5755 5753 5751 5749 5748 5746 5745 5743 5742 5740 5738 5737 5735 5733 5731 5730 5728 5727 5726 5724 5723 5722
5793 5793 5791 5791 5792 5789 5787 5786 5784 5783 5781 5779 5777 5774 5772 5770 5768 5765 5763 5760 5758 5755 5753 5751 5749 5748 5746 5745 5744 5742 5741 5739 5737 5736 5734 5733 5732 5730 5729 5728 5727 5725 5724 5723
5791 5790 5790 5789 5788 5787 5786 5784 5783 5781 5780 5777 5775 5773 5771 5768 5766 5764 5761 5759 5756 5754 5752 5750 5748 5747 5745 5744 5743 5742 5740 5739 5737 5736 5735 5734 5732 5731 5730 5729 5728 5727 5726 5725
5790 5789 5788 5788 5787 5786 5785 5783 5782 5780 5778 5776 5774 5772 5769 5767 5765 5762 5760 5758 5755 5753 5751 5749 5748 5746 5745 5744 5743 5742 5740 5739 5738 5737 5736 5734 5733 5732 5732 5731 5730 5729 5728 5728
5788 5788 5787 5787 5786 5785 5784 5783 5781 5780 5778 5776 5774 5771 5769 5766 5764 5762 5760 5757 5755 5753 5751 5750 5748 5747 5745 5744 5743 5742 5741 5740 5739 5738 5737 5736 5735 5734 5734 5733 5732 5732 5731 5731